| time (UTC) | temp F | wind direction | speed knots | gust knots | rain 1hr in | rain 24hr in | rain mn in | humidity % | barometer mb |
| 20260506113417 | 64 | 180 | 1.7 | 3.5 | 0.00 | 0.47 | 0.00 | 65 | 1006.1 |
| 20260506112417 | 64 | 180 | 2.6 | 7.8 | 0.00 | 0.47 | 0.00 | 66 | 1006.4 |
| 20260506111436 | 63 | 158 | 2.6 | 4.3 | 0.00 | 0.47 | 0.00 | 66 | 1006.4 |
| 20260506110537 | 64 | 180 | 0.9 | 1.7 | 0.00 | 0.47 | 0.00 | 65 | 1006.4 |
| 20260506105417 | 63 | 180 | 6.1 | 10.4 | 0.00 | 0.47 | 0.00 | 67 | 1006.6 |
| 20260506104416 | 63 | 158 | 5.2 | 9.6 | 0.00 | 0.47 | 0.00 | 69 | 1006.8 |
| 20260506103436 | 62 | 203 | 5.2 | 8.7 | 0.00 | 0.47 | 0.00 | 69 | 1006.7 |
| 20260506102417 | 62 | 158 | 6.1 | 9.6 | 0.00 | 0.47 | 0.00 | 69 | 1006.7 |
| 20260506101417 | 62 | 180 | 3.5 | 5.2 | 0.00 | 0.47 | 0.00 | 71 | 1006.6 |
| 20260506100416 | 62 | 158 | 4.3 | 6.1 | 0.00 | 0.47 | 0.00 | 71 | 1006.6 |
| 20260506095416 | 61 | 203 | 3.5 | 8.7 | 0.00 | 0.47 | 0.00 | 74 | 1006.8 |
| 20260506094456 | 60 | 180 | 4.3 | 6.1 | 0.00 | 0.47 | 0.00 | 75 | 1006.6 |
| 20260506093417 | 60 | 180 | 1.7 | 3.5 | 0.00 | 0.47 | 0.00 | 75 | 1006.6 |
| 20260506092416 | 60 | 135 | 1.7 | 2.6 | 0.00 | 0.47 | 0.00 | 76 | 1006.6 |
| 20260506091416 | 59 | 248 | 4.3 | 8.7 | 0.00 | 0.47 | 0.00 | 75 | 1006.9 |
| 20260506090416 | 59 | 158 | 2.6 | 4.3 | 0.00 | 0.47 | 0.00 | 77 | 1006.9 |
| 20260506085508 | 59 | 158 | 4.3 | 6.1 | 0.00 | 0.47 | 0.00 | 79 | 1007.0 |
| 20260506084416 | 58 | 225 | 7.0 | 9.6 | 0.00 | 0.47 | 0.00 | 79 | 1006.8 |
| 20260506083416 | 58 | 180 | 2.6 | 4.3 | 0.00 | 0.47 | 0.00 | 81 | 1006.8 |
| 20260506082416 | 57 | 135 | 1.7 | 4.3 | 0.00 | 0.47 | 0.00 | 83 | 1006.8 |
| 20260506081436 | 56 | 180 | 4.3 | 6.1 | 0.00 | 0.47 | 0.00 | 83 | 1006.6 |
| 20260506080416 | 56 | 180 | 5.2 | 6.1 | 0.00 | 0.47 | 0.00 | 85 | 1006.6 |
| 20260506073436 | 55 | 203 | 6.1 | 7.8 | 0.00 | 0.47 | 0.00 | 88 | 1006.7 |
| 20260506072416 | 55 | 203 | 4.3 | 7.0 | 0.00 | 0.47 | 0.00 | 90 | 1006.6 |
| 20260506071436 | 54 | 180 | 1.7 | 3.5 | 0.00 | 0.47 | 0.00 | 91 | 1006.4 |
| 20260506070416 | 54 | 158 | 2.6 | 4.3 | 0.00 | 0.47 | 0.00 | 91 | 1006.4 |
| 20260506062416 | 53 | 180 | 2.6 | 5.2 | 0.00 | 0.47 | 0.00 | 91 | 1006.3 |
| 20260506061416 | 53 | 225 | 3.5 | 6.1 | 0.00 | 0.47 | 0.00 | 91 | 1006.6 |
| 20260506060416 | 52 | 225 | 2.6 | 5.2 | 0.00 | 0.47 | 0.00 | 92 | 1006.6 |
| 20260506051416 | 52 | 203 | 3.5 | 5.2 | 0.00 | 0.47 | 0.00 | 92 | 1006.5 |
| 20260506050416 | 52 | 180 | 4.3 | 6.1 | 0.00 | 0.47 | 0.00 | 92 | 1006.5 |
| 20260506044416 | 52 | 180 | 5.2 | 6.1 | 0.00 | 0.47 | 0.00 | 92 | 1006.1 |
| 20260506043415 | 52 | 203 | 5.2 | 6.1 | 0.00 | 0.47 | 0.00 | 92 | 1006.1 |
| 20260506042416 | 52 | 158 | 2.6 | 3.5 | 0.00 | 0.47 | 0.00 | 92 | 1006.1 |
| 20260506041415 | 52 | 203 | 5.2 | 10.4 | 0.00 | 0.47 | 0.00 | 92 | 1006.1 |
| 20260506040415 | 52 | 203 | 2.6 | 5.2 | 0.00 | 0.47 | 0.00 | 92 | 1006.1 |
| 20260506035415 | 52 | 225 | 1.7 | 3.5 | 0.00 | 0.47 | 0.00 | 92 | 1006.0 |
| 20260506034456 | 52 | 203 | 6.1 | 8.7 | 0.00 | 0.47 | 0.00 | 92 | 1006.2 |
| 20260506033415 | 52 | 203 | 4.3 | 10.4 | 0.00 | 0.47 | 0.00 | 92 | 1006.2 |
| 20260506032536 | 52 | 203 | 4.3 | 6.1 | 0.00 | 0.47 | 0.00 | 92 | 1006.2 |
| 20260506031415 | 52 | 225 | 3.5 | 4.3 | 0.00 | 0.47 | 0.00 | 92 | 1006.4 |
| 20260506030436 | 52 | 203 | 3.5 | 6.1 | 0.00 | 0.47 | 0.00 | 92 | 1006.4 |
| 20260506025415 | 52 | 158 | 4.3 | 6.1 | 0.00 | 0.47 | 0.00 | 92 | 1006.3 |
| 20260506024416 | 52 | 203 | 3.5 | 5.2 | 0.00 | 0.47 | 0.00 | 92 | 1006.5 |
| 20260506023415 | 52 | 203 | 1.7 | 3.5 | 0.00 | 0.47 | 0.00 | 92 | 1006.5 |
| 20260506022436 | 52 | 225 | 2.6 | 4.3 | 0.00 | 0.47 | 0.00 | 92 | 1006.6 |
| 20260506021416 | 52 | 180 | 3.5 | 4.3 | 0.00 | 0.47 | 0.00 | 92 | 1006.3 |
| 20260506020415 | 52 | 225 | 4.3 | 5.2 | 0.00 | 0.47 | 0.00 | 92 | 1006.3 |
| 20260506015415 | 52 | 225 | 5.2 | 7.8 | 0.00 | 0.47 | 0.00 | 92 | 1006.1 |
| 20260506014415 | 52 | 203 | 3.5 | 5.2 | 0.00 | 0.47 | 0.00 | 92 | 1006.7 |
| 20260506013415 | 52 | 180 | 3.5 | 4.3 | 0.00 | 0.47 | 0.00 | 92 | 1006.7 |
| 20260506012415 | 52 | 225 | 1.7 | 2.6 | 0.00 | 0.47 | 0.00 | 92 | 1006.8 |
| 20260506011415 | 52 | 225 | 0.9 | 2.6 | 0.00 | 0.47 | 0.00 | 92 | 1006.6 |
| 20260506010415 | 52 | 225 | 2.6 | 3.5 | 0.00 | 0.47 | 0.00 | 92 | 1006.6 |
| 20260506005415 | 52 | 225 | 2.6 | 4.3 | 0.00 | 0.47 | 0.00 | 91 | 1006.5 |
| 20260506004415 | 52 | 0.0 | 0.0 | 0.00 | 0.47 | 0.00 | 92 | 1006.6 | |
| 20260506003415 | 52 | 225 | 1.7 | 3.5 | 0.00 | 0.47 | 0.00 | 92 | 1006.6 |
| 20260506002417 | 52 | 225 | 1.7 | 2.6 | 0.00 | 0.47 | 0.00 | 91 | 1006.5 |
| 20260506001437 | 53 | 225 | 2.6 | 5.2 | 0.00 | 0.47 | 0.00 | 91 | 1006.8 |
| 20260506000417 | 53 | 203 | 3.5 | 4.3 | 0.00 | 0.47 | 0.00 | 91 | 1006.8 |
| 20260505235417 | 53 | 203 | 2.6 | 5.2 | 0.00 | 0.47 | 0.00 | 91 | 1007.0 |
| 20260505234417 | 53 | 180 | 2.6 | 5.2 | 0.00 | 0.47 | 0.00 | 91 | 1006.9 |
| 20260505233417 | 53 | 225 | 3.5 | 8.7 | 0.00 | 0.47 | 0.00 | 91 | 1006.9 |
| 20260505232417 | 53 | 180 | 1.7 | 5.2 | 0.00 | 0.47 | 0.00 | 91 | 1007.0 |
| 20260505231417 | 53 | 180 | 0.9 | 2.6 | 0.00 | 0.47 | 0.00 | 91 | 1006.9 |
| 20260505230417 | 53 | 180 | 1.7 | 4.3 | 0.00 | 0.47 | 0.00 | 91 | 1006.9 |
| 20260505225417 | 53 | 0.0 | 0.0 | 0.00 | 0.47 | 0.00 | 91 | 1007.0 | |
| 20260505224417 | 53 | 203 | 1.7 | 2.6 | 0.00 | 0.47 | 0.00 | 91 | 1006.9 |
| 20260505223417 | 53 | 203 | 2.6 | 4.3 | 0.00 | 0.47 | 0.00 | 91 | 1006.7 |
| 20260505222417 | 53 | 0.0 | 1.7 | 0.00 | 0.47 | 0.00 | 90 | 1006.7 | |
| 20260505221417 | 53 | 203 | 0.9 | 0.9 | 0.00 | 0.47 | 0.00 | 91 | 1007.0 |
| 20260505220417 | 53 | 0.0 | 0.0 | 0.00 | 0.47 | 0.00 | 90 | 1007.0 | |
| 20260505215435 | 54 | 0.0 | 0.0 | 0.00 | 0.47 | 0.47 | 90 | 1006.7 | |
| 20260505214416 | 54 | 0.0 | 0.0 | 0.00 | 0.47 | 0.47 | 90 | 1007.1 | |
| 20260505213456 | 54 | 0.0 | 0.0 | 0.00 | 0.47 | 0.47 | 90 | 1007.0 | |
| 20260505212435 | 53 | 315 | 0.9 | 2.6 | 0.00 | 0.47 | 0.47 | 90 | 1007.0 |
| 20260505211415 | 53 | 0.0 | 0.0 | 0.00 | 0.47 | 0.47 | 90 | 1007.3 | |
| 20260505210415 | 53 | 0.0 | 0.0 | 0.00 | 0.47 | 0.47 | 89 | 1007.2 | |
| 20260505205415 | 53 | 0.0 | 0.0 | 0.00 | 0.47 | 0.47 | 89 | 1007.1 | |
| 20260505204416 | 53 | 0.0 | 0.0 | 0.00 | 0.47 | 0.47 | 89 | 1006.6 | |
| 20260505203415 | 54 | 0.0 | 0.0 | 0.00 | 0.47 | 0.47 | 89 | 1006.5 | |
| 20260505202415 | 54 | 0.0 | 0.0 | 0.00 | 0.47 | 0.47 | 89 | 1006.5 | |
| 20260505201415 | 54 | 0.0 | 0.0 | 0.00 | 0.47 | 0.47 | 89 | 1006.6 | |
| 20260505200415 | 54 | 315 | 0.9 | 1.7 | 0.00 | 0.47 | 0.47 | 89 | 1006.6 |
| 20260505195415 | 54 | 0.0 | 0.0 | 0.00 | 0.47 | 0.47 | 89 | 1006.6 | |
| 20260505194424 | 54 | 0.0 | 0.9 | 0.00 | 0.47 | 0.47 | 89 | 1006.3 | |
| 20260505193515 | 55 | 315 | 0.9 | 2.6 | 0.00 | 0.47 | 0.47 | 89 | 1006.3 |
| 20260505192515 | 55 | 0.0 | 0.0 | 0.02 | 0.47 | 0.47 | 88 | 1006.0 | |
| 20260505191515 | 55 | 90 | 0.9 | 2.6 | 0.02 | 0.47 | 0.47 | 88 | 1005.8 |
| 20260505190515 | 55 | 0.0 | 0.0 | 0.03 | 0.47 | 0.47 | 88 | 1005.9 | |
| 20260505185507 | 55 | 0.0 | 0.0 | 0.09 | 0.47 | 0.47 | 88 | 1005.9 | |
| 20260505184817 | 55 | 90 | 0.9 | 1.7 | 0.15 | 0.47 | 0.47 | 88 | 1005.8 |
| 20260505183837 | 55 | 90 | 2.6 | 4.3 | 0.29 | 0.47 | 0.47 | 87 | 1005.8 |
| 20260505182817 | 56 | 248 | 0.9 | 3.5 | 0.32 | 0.46 | 0.46 | 86 | 1005.6 |
| 20260505181817 | 56 | 293 | 6.1 | 11.3 | 0.44 | 0.45 | 0.45 | 86 | 1005.6 |
| 20260505180817 | 56 | 293 | 7.8 | 12.2 | 0.44 | 0.44 | 0.44 | 84 | 1006.0 |
| 20260505175817 | 57 | 270 | 6.1 | 16.5 | 0.39 | 0.39 | 0.39 | 83 | 1006.4 |
| 20260505174817 | 59 | 248 | 12.2 | 18.2 | 0.32 | 0.32 | 0.32 | 80 | 1006.4 |
| 20260505173837 | 64 | 203 | 13.9 | 17.4 | 0.18 | 0.18 | 0.18 | 79 | 1004.8 |
| 20260505172837 | 65 | 270 | 2.6 | 5.2 | 0.14 | 0.14 | 0.14 | 77 | 1004.6 |
| 20260505171855 | 65 | 225 | 1.7 | 3.5 | 0.01 | 0.01 | 0.01 | 74 | 1004.5 |
| 20260505170817 | 66 | 270 | 3.5 | 5.2 | 0.00 | 0.00 | 0.00 | 72 | 1004.3 |
| 20260505165837 | 66 | 0 | 1.7 | 3.5 | 0.00 | 0.00 | 0.00 | 71 | 1004.4 |
| 20260505164837 | 67 | 338 | 1.7 | 3.5 | 0.00 | 0.00 | 0.00 | 70 | 1004.5 |
| 20260505163817 | 67 | 338 | 1.7 | 4.3 | 0.00 | 0.00 | 0.00 | 69 | 1004.5 |
| 20260505162817 | 67 | 338 | 3.5 | 5.2 | 0.00 | 0.00 | 0.00 | 69 | 1004.8 |
| 20260505161817 | 67 | 338 | 6.1 | 11.3 | 0.00 | 0.00 | 0.00 | 69 | 1004.8 |
| 20260505160817 | 67 | 0 | 5.2 | 9.6 | 0.00 | 0.00 | 0.00 | 68 | 1004.7 |
| 20260505152816 | 68 | 0 | 4.3 | 8.7 | 0.00 | 0.00 | 0.00 | 66 | 1004.9 |
| 20260505151816 | 68 | 0 | 4.3 | 7.8 | 0.00 | 0.00 | 0.00 | 65 | 1004.9 |
| 20260505150817 | 69 | 0 | 6.1 | 8.7 | 0.00 | 0.00 | 0.00 | 63 | 1005.1 |
| 20260505124816 | 76 | 0.0 | 0.9 | 0.00 | 0.00 | 0.00 | 43 | 1005.7 | |
| 20260505123816 | 76 | 248 | 3.5 | 5.2 | 0.00 | 0.00 | 0.00 | 43 | 1006.0 |
| 20260505122816 | 76 | 270 | 2.6 | 5.2 | 0.00 | 0.00 | 0.00 | 44 | 1006.1 |
| 20260505121816 | 76 | 135 | 0.9 | 1.7 | 0.00 | 0.00 | 0.00 | 43 | 1006.1 |
| 20260505120816 | 75 | 135 | 1.7 | 3.5 | 0.00 | 0.00 | 0.00 | 44 | 1006.1 |
| 20260505115816 | 75 | 180 | 1.7 | 7.8 | 0.00 | 0.00 | 0.00 | 44 | 1006.3 |
| 20260505114816 | 76 | 248 | 2.6 | 5.2 | 0.00 | 0.00 | 0.00 | 47 | 1006.3 |